Погода в Самарканде

Погода в Самарканде : погода сейчас, прогноз погоды и архив. Всё, что Вы хотите узнать о погоде в Самарканде!

Поиск расширенной информации на нашем сайте:

Другие новости

Новости СМИ2

Главная страница сайта

Новости сайта

03.07.2017

Напоминаем, что на нашем специализированном сайте Метеоцентр.Азия вы можете получить высокодетализированные автоматические прогнозы погоды по пунктам России, СНГ и мира в авиационном формате (включающие направление и скорость ветра, видимость, явления погоды, количество и форму облачности, нижнюю и верхнюю границу облачности).


Погода в Самарканде - сегодня

Время (UTC), дата Ветер
(°,м/с) 
Видим.   Явления Облачность Т
(°С)
Тd
(°С)
f(%) Тe
(°С)
Pmin
(гПа)
dP
(гПа)
Po
(мм)
O2
(г/м3)
Тmin Tmax R s Состояние
почвы
00 19.09.17 140 (ЮВ) н/о    ясно 
+16.5 +6.8 53 +18  1016.6  -0.2  701  265           
03 19.09.17 090 (В) 20000 м    ясно 
+19.8 +5.9 40 +21  1016.7  0.9  701  262           
06 19.09.17 070 (В) 20000 м    ясно 
+27.1 +4.8 24 +27  1014.7  701  256  +16.4         
09 19.09.17 090 (В) 20000 м    ясно 
+30 +5.1 21 +30  1012.7  -1.1  701  253           
12 19.09.17 090 (В) 20000 м    ясно 
+28.1 +3.8 21 +28  1012.7  -0.5  700  255           
15 19.09.17 070 (В) н/о    ясно 
+23.4 +6.2 33 +23  1014.5  0.5  701  259    +30.6       
18 19.09.17 070 (В) н/о    ясно 
+19.9 +6.4 41 +21  1015.3  -0.2  701  262    +30.6       
21 19.09.17 070 (В) н/о    ясно 
+15.4 +7.4 59 +17  1015.4  -1.1  700  266           
00 20.09.17 070 (В) н/о    ясно 
+14.8 +6.4 57 +16  1014.6  -0.9  699  266    +0.9       
03 20.09.17 070 (В) 20000 м    ясно 
+17.7 +5.9 46 +19  1014.1  0.3  699  264  +13.2        сухая 
06 20.09.17 090 (В) 20000 м    ясно 
+26.8 +5 25 +27  1012.2  0.6  700  256  +14         
09 20.09.17 090 (В) 20000 м    ясно 
+30 +4.8 20 +30  1010.6  -0.6  699  253           
12 20.09.17 110 (В) 20000 м    ясно 
+28.5 +6.4 25 +29  1010.2  -0.8  699  254           
15 20.09.17 180 (Ю) н/о    ясно 
+22.6 +5.8 34 +23  1012  0.1  699  259    +30.5       
18 20.09.17 140 (ЮВ) н/о    ясно 
+19.2 +7 45 +21  1012.3  -0.5  698  262    +30.5       
21 20.09.17 тихо ()   н/о    ясно 
+14.8 +8.2 65 +15  1013.2  -0.3  698  265           
00 21.09.17 090 (В) н/о    ясно 
+12.9 +7.8 71 +13  1013.1  -0.7  698  267           
03 21.09.17 160 (Ю) 20000 м    ясно 
+17.3 +7.4 52 +19  1013.5  1.6  699  263  +12.6        сухая 
06 21.09.17 090 (В) 20000 м    ясно 
+28.1 +4.1 22 +28  1009.8  -0.7  698  254  +12.6         
09 21.09.17 320 (СЗ) 20000 м    ясно 
+30.2 +6.8 23 +30  1008.6  -0.5  698  252           
12 21.09.17 340 (С) 20000 м    ясно 
+29.4 +6.8 24 +29  1008.6  -0.6  697  253           
15 21.09.17 050 (СВ) н/о    ясно 
+23.1 +7.4 36 +23  1010.8  0.8  698  258    +30.7       
18 21.09.17 070 (В) н/о    ясно 
+20.5 +5.6 38 +21  1011.1  -0.4  698  261    +30.7       
21 21.09.17 070 (В) н/о    ясно 
+19.1 +5.5 41 +21  1011.1  -0.4  697  262           
00 22.09.17 070 (В) н/о    ясно 
+15.5 +8 61 +17  1012.1  697  264           
Время (UTC), дата Ветер
(°,м/с) 
Видим.   Явления Облачность Т
(°С)
Тd
(°С)
f(%) Тe
(°С)
Pmin
(гПа)
dP
(гПа)
Po
(мм)
O2
(г/м3)
Тmin Tmax R s Состояние
почвы

Для получения пояснительной информации подведите курсор к названию столбца.

ПОГОДА в Самарканде - архив

Всё, что Вы хотите узнать о погоде в Самарканде - удобно и подробно!

Выберите нужную дату (начиная с 1 января 2015* года) и нажмите кнопку "Найти".
Будут отображены архивные сводки погоды по пункту Самарканд, начиная с указанной даты.


Отображать данные в формате CSV (для использования в таблицах Excel)


Внимание! Наш архив погоды предназначен исключительно для личного некоммерческого использования в познавательных целях. Если Вам необходимы официальные справки о состоянии погоды (для производственных, юридических, коммерческих и т.п. целей), обращайтесь в органы Росгидромета.

*Примечание: данная дата относится к архиву по метеостанциям СССР (Россия, СНГ, Балтия).
Архив по метеостанциям Зарубежной Европы и Азии (кроме Китая) хранится 10 дней, по другим регионам земного шара (Китай, Африка, Америка, Австралия, Океания) - 1 день.

Самарканд - район местоположения метеостанции


Название, широта, долгота, высота метеостанции:
Самарканд (город) 39.6°ш. 66.9°д. 724 м над ур. моря [Узбекистан]

Дополнительная информация

В oтличие oт бoльшинства пoгoдных сайтoв мы публикуем пoдрoбную метеoинфoрмацию в детальнoм прoфессиoнальнoм фoрмате.

Характеристики температуры и влажнoсти вoздуха измеряются на высoте 2 м в тени вдали oт зданий и деревьев.
Скoрoсть ветра измеряется на высoте 10 м (на урoвне рoста челoвека скoрoсть ветра ниже в 1.5-2 раза). Если метеoстанция нахoдится в гoрoде или в лесу, тo скoрoсть ветра занижена на 2-4 м/с пo сравнению с oткрытым местoм. Скoрoсть ветра над акватoриями крупных рек и oзёр, а также на вершинах хoлмoв на 2-5 м/с выше, чем в oбычных услoвиях.
Атмoсфернoе давление в разных тoчках местнoсти мoжет значительнo oтличаться oт давления на метеoстанции, в зависимoсти oт услoвий рельефа (при пoдъёме на 10 м давление пoнижается примернo на 1 мм рт.ст.).